Weather History for KSBA - September, 2013

Change the Weather History Date:

Tuesday, September 24, 2013

  Actual Average Record
Temperature  
Mean Temperature 67 °F 64 °F  
Max Temperature 79 °F 74 °F 100 °F (1978)
Min Temperature 55 °F 55 °F 46 °F (2005)
Degree Days  
Heating Degree Days 0 2  
Month to date heating degree days 9 29  
Since 1 July heating degree days 39 80  
Cooling Degree Days 2 1  
Month to date cooling degree days 79 39  
Year to date cooling degree days 277 166  
Growing Degree Days 16 (Base 50)    
Moisture  
Dew Point 55 °F    
Average Humidity 64    
Maximum Humidity 90    
Minimum Humidity 37    
Precipitation  
Precipitation 0.00 in 0.01 in 1.45 in (1986)
Month to date precipitation 0.00 0.17  
Year to date precipitation 3.42 12.37  
Since 1 July precipitation 0.07 0.32  
Sea Level Pressure  
Sea Level Pressure 29.87 in    
Wind  
Wind Speed 4 mph (SSE)    
Max Wind Speed 12 mph    
Max Gust Speed 16 mph    
Visibility 10 miles    
Events      
T = Trace of Precipitation, MM = Missing Value Source: NWS Daily Summary

Daily Weather History Graph

Daily Weather History Graph

Search for Another Location

Airport or City:

Trip Planner

Search our weather history database for the weather conditions in past years. The results will help you decide how hot, cold, wet, or windy it might be!

Date:

Astronomy

Sep. 24, 2013 Rise Set
Actual Time 6:49 AM PDT 6:52 PM PDT
Civil Twilight 6:24 AM PDT 7:17 PM PDT
Nautical Twilight 5:54 AM PDT 7:47 PM PDT
Astronomical Twilight 5:25 AM PDT 8:16 PM PDT
Moon 10:27 PM PDT (9/24) 11:55 AM PDT (9/24)
Length of Visible Light 12h 53m
Length of Day
12h 03m
Waning Gibbous, 72% of the Moon is Illuminated
Sep 24
Waning Gibbous
Sep 26
Last Quarter
Oct 4
New
Oct 11
First Quarter
Oct 18
Full

Hourly Weather History & Observations

Time (PDT) Temp. Dew Point Humidity Pressure Visibility Wind Dir Wind Speed Gust Speed Precip Events Conditions
12:53 AM 64.0 °F 60.1 °F 87% 29.86 in 10.0 mi SE 4.6 mph - N/A   Clear
1:53 AM 62.1 °F 55.0 °F 78% 29.86 in 10.0 mi ENE 3.5 mph - N/A   Clear
2:53 AM 60.1 °F 54.0 °F 80% 29.86 in 10.0 mi Calm Calm - N/A   Clear
3:53 AM 57.9 °F 51.1 °F 78% 29.87 in 10.0 mi Calm Calm - N/A   Clear
4:53 AM 57.0 °F 48.9 °F 74% 29.87 in 10.0 mi Calm Calm - N/A   Clear
5:53 AM 55.9 °F 48.9 °F 77% 29.88 in 10.0 mi Calm Calm - N/A   Clear
6:53 AM 57.9 °F 48.0 °F 70% 29.90 in 10.0 mi Calm Calm - N/A   Clear
7:53 AM 61.0 °F 51.1 °F 70% 29.91 in 10.0 mi Calm Calm - N/A   Clear
8:53 AM 72.0 °F 55.0 °F 55% 29.92 in 10.0 mi SSE 3.5 mph - N/A   Clear
9:53 AM 72.0 °F 55.0 °F 55% 29.94 in 10.0 mi SSE 6.9 mph - N/A   Clear
10:53 AM 73.9 °F 57.0 °F 55% 29.93 in 10.0 mi SSE 5.8 mph - N/A   Clear
11:53 AM 75.0 °F 55.9 °F 51% 29.92 in 10.0 mi SSE 6.9 mph - N/A   Clear
12:53 PM 75.0 °F 55.9 °F 51% 29.90 in 10.0 mi Variable 3.5 mph - N/A   Clear
1:53 PM 75.9 °F 54.0 °F 46% 29.88 in 10.0 mi West 6.9 mph - N/A   Clear
2:53 PM 78.1 °F 50.0 °F 37% 29.86 in 10.0 mi WSW 8.1 mph - N/A   Clear
3:53 PM 77.0 °F 52.0 °F 42% 29.86 in 10.0 mi West 6.9 mph - N/A   Clear
4:53 PM 70.0 °F 59.0 °F 68% 29.83 in 10.0 mi SSE 6.9 mph - N/A   Clear
5:53 PM 68.0 °F 59.0 °F 73% 29.83 in 9.0 mi SE 5.8 mph - N/A   Clear
6:53 PM 64.9 °F 59.0 °F 81% 29.82 in 9.0 mi ESE 4.6 mph - N/A   Clear
7:53 PM 64.0 °F 59.0 °F 84% 29.82 in 10.0 mi SE 3.5 mph - N/A   Clear
8:53 PM 63.0 °F 59.0 °F 87% 29.82 in 9.0 mi Calm Calm - N/A   Clear
9:53 PM 63.0 °F 57.9 °F 84% 29.83 in 10.0 mi Calm Calm - N/A   Clear
10:53 PM 57.9 °F 54.0 °F 87% 29.83 in 10.0 mi WNW 3.5 mph - N/A   Clear
11:53 PM 63.0 °F 57.0 °F 81% 29.81 in 10.0 mi East 6.9 mph - N/A   Clear